Location: Neuvy Saint Sepulchre
(46.5953°N, 1.8122°E)
Time: 09:58:37
(UTC+02:00)

ISS - Pass Details

Date: 07 May 2021
Orbit: 417 x 422 km, 51.6° (Epoch: 15 May)

Event Time Altitude Azimuth Distance (km) Brightness Sun altitude
Exits shadow 03:35:20 55° 6° (N) 510 -3.1 -22.2°
Drops below altitude 10° 03:38:23 10° 60° (ENE) 1,507 -0.2 -22.0°
Sets 03:40:31 0° 65° (ENE) 2,374 0.9 -21.8°
